This is the latest recevied weather packets stored in our database for station/object N0QV. If no packets are shown the sender has not sent any weather packets the latest 10 day(s).
| Time | Temp. | Humidity | Pressure | Rain* | Wind** | Luminosity | Snow |
|---|---|---|---|---|---|---|---|
| 1777527442 | 9.44° C | 51% | 1017.9 hPa | 0 mm | - | 0 W/m² | - |
| 1777527142 | 8.89° C | 51% | 1017.8 hPa | 0 mm | - | 0 W/m² | - |
| 1777526839 | 8.89° C | 52% | 1017.8 hPa | 0 mm | - | 0 W/m² | - |
| 1777526533 | 8.89° C | 54% | 1018.1 hPa | 0 mm | - | 0 W/m² | - |
| 1777526228 | 8.89° C | 54% | 1017.8 hPa | 0 mm | - | 0 W/m² | - |
| 1777525924 | 8.89° C | 55% | 1017.7 hPa | 0 mm | - | 0 W/m² | - |
| 1777525623 | 8.89° C | 56% | 1017.9 hPa | 0 mm | - | 0 W/m² | - |
| 1777525320 | 8.89° C | 55% | 1017.9 hPa | 0 mm | - | 0 W/m² | - |
| 1777525015 | 8.89° C | 55% | 1017.9 hPa | 0 mm | - | 0 W/m² | - |
| 1777524712 | 8.89° C | 54% | 1017.9 hPa | 0 mm | - | 0 W/m² | - |
| 1777524410 | 8.89° C | 56% | 1018 hPa | 0 mm | - | 0 W/m² | - |
| 1777524106 | 8.89° C | 55% | 1018.1 hPa | 0 mm | - | 0 W/m² | - |
| 1777523803 | 8.89° C | 56% | 1018 hPa | 0 mm | - | 0 W/m² | - |
| 1777523499 | 8.89° C | 58% | 1017.9 hPa | 0 mm | - | 0 W/m² | - |
| 1777523195 | 8.89° C | 55% | 1018 hPa | 0 mm | - | 0 W/m² | - |
| 1777522891 | 8.89° C | 56% | 1017.8 hPa | 0 mm | - | 0 W/m² | - |
| 1777522589 | 8.33° C | 57% | 1017.9 hPa | 0 mm | - | 0 W/m² | - |
| 1777522286 | 8.33° C | 58% | 1018.1 hPa | 0 mm | - | 0 W/m² | - |
| 1777521983 | 8.33° C | 61% | 1017.9 hPa | 0 mm | - | 0 W/m² | - |
| 1777521679 | 7.78° C | 63% | 1018 hPa | 0 mm | - | 0 W/m² | - |
| 1777521376 | 7.78° C | 64% | 1018 hPa | 0 mm | - | 0 W/m² | - |
| 1777521073 | 7.22° C | 68% | 1017.9 hPa | 0 mm | - | 0 W/m² | - |
| 1777520770 | 7.22° C | 69% | 1018.1 hPa | 0 mm | - | 0 W/m² | - |
| 1777520467 | 6.67° C | 71% | 1017.9 hPa | 0 mm | - | 0 W/m² | - |
| 1777520164 | 6.11° C | 75% | 1017.8 hPa | 0 mm | - | 0 W/m² | - |
* Rain latest hour (hover to see other rain measurements)
** Current wind speed in m/s (hover to see current wind gust speed)